Location: Asheville, NC
(35.6000°N, 82.5500°W)
Time: 04:43:04
(UTC-04:00)

OTV 5 (USA 277) - Visible Passes

Search period start: 21 May 2018 00:00
Search period end: 31 May 2018 00:00
Orbit: 308 x 326 km, 54.5° (Epoch: 06 May)

Date Brightness Start Highest point End Pass type
(mag) Time Alt. Az. Time Alt. Az. Time Alt. Az.
26 May ? 05:44:15 10° SSW 05:46:43 31° SE 05:49:11 10° ENE visible
28 May ? 04:40:45 16° SE 04:41:22 17° SE 04:43:16 10° E visible
29 May ? 04:54:46 36° SSW 04:55:37 60° SE 04:58:19 10° NE visible
30 May ? 05:08:42 21° W 05:10:01 36° NW 05:12:36 10° NNE visible
